User: anonymous   Login
Location: Hains Lake
(37.8540°N, 99.8578°W)
Time: 01:06:52
(UTC+00:00)
Language:

NOSS 0 Rocket - Orbit

View from above orbital plane
View from above orbital plane
View from above satellite
View from above satellite

Ground track
Ground track

The orbit data is extracted from the following two-line orbital elements,

1  5679U 71110B   20047.48034331 -.00000027 +00000-0 +21211-4 0  9997
2  5679 069.9968 177.5842 0013926 206.4458 153.5933 13.85334194049025
Epoch (UTC): 16 February 2020 11:31:41
Eccentricity: 0.0013926
inclination: 69.9968°
perigee height: 935 km
apogee height: 955 km
right ascension of ascending node: 177.5842°
argument of perigee: 206.4458°
revolutions per day: 13.85334194
mean anomaly at epoch: 153.5933°
orbit number at epoch: 4902

The dashed part of the orbit path shows where the satellite is in the earth's shadow,  

DLR